Theta_e
347 346 349 350 350 349 347 346 351 349 348 349 349 350 350 351 349 348 344 343 344 343 343 343 344 347 346 345 344 344 344 344 344 344 345 348 348 349 348 348 346 347 348
344 348 348 349 351 351 345 349 350 349 349 349 350 349 349 349 349 348 348 348 345 344 343 343 342 345 347 341 343 344 345 345 341 342 342 344 346 348 346 347 346 347 348
343 344 346 350 350 351 350 350 349 347 348 348 349 348 348 348 349 348 347 347 347 348 346 343 343 343 345 344 342 343 345 342 342 342 342 342 345 347 349 345 346 344 344
343 341 344 346 347 350 349 348 347 347 347 346 346 343 343 338 340 344 346 348 347 346 345 345 343 343 343 344 341 343 344 344 343 343 343 344 345 348 347 347 344 344 342
340 341 345 344 344 344 348 346 345 344 344 342 340 340 339 335 334 335 337 337 342 345 345 345 343 343 343 343 343 342 343 342 344 346 343 343 343 347 348 346 347 344 343
340 342 343 343 344 343 344 345 345 341 337 338 342 340 338 339 337 335 334 334 336 337 337 344 345 344 343 343 343 343 342 342 345 344 345 344 342 343 348 346 343 343 340
341 341 343 345 344 337 341 338 336 329 330 333 341 339 334 338 336 335 336 335 335 335 334 337 339 343 344 343 344 343 343 343 344 344 344 344 343 343 345 347 342 341 344
340 343 346 347 342 338 333 331 328 325 324 324 331 331 329 328 330 330 332 332 332 332 333 335 336 335 339 342 342 344 344 342 343 344 344 345 344 343 343 344 344 343 342
341 346 348 343 332 326 331 324 322 317 316 317 319 319 319 320 321 323 328 329 328 330 328 333 336 334 329 340 340 342 343 342 343 342 339 341 345 342 341 342 342 343 341
341 343 342 334 323 321 326 319 316 314 312 311 312 314 315 315 315 317 319 324 324 324 323 323 330 330 322 328 333 339 342 341 341 342 342 340 339 343 342 340 340 342 340
337 332 327 322 321 318 317 316 314 312 311 309 309 309 309 309 309 311 314 317 318 315 316 315 316 318 317 321 326 330 335 337 336 336 339 339 338 335 340 341 339 341 340
337 331 325 322 322 316 314 313 312 311 310 308 306 305 304 305 306 308 309 310 310 308 308 308 310 312 314 315 317 322 325 327 331 336 337 338 338 338 338 338 341 339 341
340 337 331 325 320 316 315 313 311 310 309 307 306 305 302 303 304 305 306 305 303 302 303 304 305 306 307 309 311 313 316 319 322 326 333 337 338 339 341 341 338 339 341
328 326 320 318 317 314 314 312 310 309 307 306 305 304 302 302 303 304 304 303 301 302 302 302 301 301 301 301 302 304 307 311 313 316 319 321 330 335 340 340 340 340 339
318 319 318 317 315 314 313 311 309 307 306 305 305 304 302 301 302 303 304 304 302 302 302 300 301 300 301 302 301 302 302 302 305 308 311 314 318 324 331 335 338 340 340
317 317 316 315 314 313 311 309 307 306 305 305 304 303 302 302 301 303 304 304 302 302 302 301 300 300 300 300 300 303 303 302 300 299 301 304 306 311 319 324 330 335 337
317 316 314 313 312 310 309 308 307 305 304 304 303 303 302 302 301 302 303 302 302 302 302 302 300 300 300 300 299 298 300 299 297 300 299 299 301 304 307 311 318 324 331
316 314 312 311 309 309 308 307 306 305 304 303 303 302 301 301 301 301 302 302 303 302 302 302 301 301 300 300 300 298 298 298 301 297 300 301 300 300 301 302 305 313 319
316 313 310 309 308 308 307 306 305 304 303 303 302 302 301 301 301 300 302 302 302 302 301 302 300 301 300 300 300 299 298 299 298 299 300 297 298 298 297 298 299 303 311
315 313 310 308 307 306 306 305 304 304 303 303 302 302 301 300 301 300 301 301 302 302 301 301 300 300 300 299 300 300 299 301 299 302 297 298 298 297 297 298 297 299 305
313 311 308 307 306 306 305 304 303 303 303 302 302 301 301 300 300 300 300 300 301 301 301 301 300 300 300 300 300 300 299 302 299 299 299 300 299 298 299 300 300 300 302
312 310 307 307 306 305 305 304 303 303 302 302 301 301 301 300 300 300 300 300 301 300 301 300 300 300 300 300 301 299 296 298 299 299 299 299 299 299 300 300 301 301 301
308 308 307 306 306 305 305 304 303 302 301 301 301 301 301 300 300 300 300 300 300 300 300 300 300 300 300 300 299 299 297 297 299 299 298 299 299 300 300 300 300 300 300
307 307 306 306 305 305 304 303 303 303 301 301 301 301 301 300 300 300 300 300 299 299 300 300 299 300 298 298 298 299 300 300 298 299 299 299 300 300 301 300 300 300 300
307 305 306 306 305 305 304 303 303 303 303 302 301 300 300 300 300 300 300 299 299 299 299 299 299 299 298 298 298 299 299 299 299 299 299 299 299 300 300 299 299 300 300
306 304 304 304 304 304 304 303 303 303 302 301 300 300 300 300 300 300 299 299 298 298 299 299 299 299 299 299 298 298 298 298 298 297 297 299 299 300 299 299 299 300 301
Wind_Speed
8 9 8 6 5 7 8 9 10 10 10 11 11 11 11 10 10 9 9 10 9 8 7 6 5 4 6 6 6 4 4 5 5 6 8 9 9 10 10 12 12 13 13
12 10 8 6 6 7 10 11 11 11 11 11 11 11 10 10 11 10 9 9 10 8 7 6 5 4 5 5 5 4 5 6 6 7 8 9 11 10 11 12 12 13 14
13 10 9 8 7 9 11 12 12 12 11 12 11 11 12 12 12 11 10 9 9 8 7 6 5 3 3 4 5 5 5 5 5 7 8 10 11 10 11 12 13 13 12
12 11 10 9 10 12 13 13 12 12 12 13 13 13 13 14 13 12 11 10 9 8 7 7 5 4 2 2 4 3 4 4 5 7 7 9 10 10 11 13 13 11 11
13 11 11 11 12 14 14 14 13 14 13 13 14 13 13 14 15 14 13 13 11 10 8 7 6 4 2 1 2 4 2 4 7 6 6 8 8 10 12 13 10 11 11
14 13 13 13 14 15 15 15 14 13 11 10 11 11 12 10 13 13 12 14 14 13 13 10 8 5 3 1 1 2 2 5 7 4 6 8 9 9 12 13 11 10 9
16 15 15 14 15 15 15 15 14 12 12 13 13 10 12 13 12 13 12 12 12 13 13 13 12 8 4 2 1 3 3 5 6 1 4 9 11 10 11 13 11 9 9
18 17 15 15 16 15 14 13 12 10 9 9 9 7 8 9 11 11 12 12 14 15 15 13 14 14 12 4 1 3 4 5 6 6 4 7 13 13 12 12 10 9 9
17 18 17 16 15 16 13 12 10 8 6 4 4 4 4 5 6 8 13 12 13 14 15 13 13 12 11 11 8 2 4 4 7 8 7 8 10 13 14 12 11 10 9
18 18 18 18 18 15 13 10 8 5 4 4 4 4 4 4 5 5 7 13 12 13 11 10 9 9 11 10 7 6 2 3 7 9 12 11 11 12 11 12 13 10 10
20 19 19 19 18 15 13 10 6 4 4 4 5 5 4 5 5 5 7 8 11 9 9 9 8 9 11 11 10 8 5 3 7 10 10 13 13 15 17 11 12 12 12
23 22 20 20 18 15 13 9 6 3 3 3 4 5 5 5 6 6 7 7 8 9 9 9 9 9 8 9 11 10 11 11 9 10 13 13 13 12 11 16 11 14 14
29 24 23 22 19 17 14 10 8 5 3 2 3 4 5 5 6 6 7 9 9 11 11 12 11 12 12 11 10 11 11 12 13 13 11 14 13 13 13 10 13 14 17
31 29 26 23 22 19 15 12 10 8 6 4 3 4 4 5 6 8 9 11 12 13 13 14 15 15 14 14 13 11 11 12 13 13 13 14 14 16 14 17 16 17 20
33 32 30 27 24 21 18 15 12 10 8 6 4 4 4 4 6 7 7 9 11 12 14 15 15 16 16 17 17 15 15 15 15 15 15 15 15 17 19 17 19 18 20
36 35 32 28 25 22 20 17 14 12 10 7 5 4 3 4 5 6 6 7 9 11 13 15 17 17 18 18 18 18 19 18 18 18 19 18 18 18 20 21 20 21 20
39 35 33 30 27 24 21 18 15 13 11 9 6 4 3 3 4 5 5 6 8 10 11 13 16 16 18 19 19 20 20 21 21 19 21 21 22 22 25 23 21 24 22
40 36 33 30 27 25 22 19 17 14 12 10 7 5 3 2 2 3 3 4 6 8 10 11 15 16 19 19 21 22 22 19 17 24 22 22 24 24 27 28 27 26 26
42 38 34 31 29 26 22 20 17 15 13 11 8 6 4 3 2 2 2 3 4 5 9 9 12 13 17 18 19 21 26 15 17 19 21 29 28 29 29 30 31 28 28
42 38 36 32 29 26 23 21 19 16 15 13 10 8 6 4 4 3 2 1 2 3 7 7 9 11 13 16 17 18 16 6 15 11 28 22 26 29 32 31 30 31 28
39 38 38 35 32 30 29 26 22 21 18 15 13 10 9 6 5 3 2 1 2 3 5 5 8 9 11 14 11 20 6 8 5 20 19 15 24 28 33 35 32 29 29
42 42 41 39 37 35 33 30 23 23 19 16 14 12 11 8 8 5 4 3 3 4 4 5 7 8 10 14 8 10 3 6 9 28 14 19 20 24 29 33 32 34 31
42 46 48 45 41 38 34 30 21 17 12 17 16 14 14 10 9 8 6 5 3 3 4 6 6 7 8 11 13 6 3 3 19 3 22 17 19 23 29 31 35 34 37
41 46 49 47 44 40 37 34 30 25 19 19 18 15 13 11 11 8 7 5 4 5 5 5 8 6 11 14 13 10 10 15 3 7 12 18 19 21 26 28 32 36 38
38 45 50 48 45 42 41 37 32 26 20 14 16 15 14 13 11 9 9 6 7 6 7 9 8 10 12 13 14 14 14 16 14 9 10 25 26 23 26 29 31 35 38
32 37 43 47 47 45 43 38 34 29 23 19 19 17 16 14 13 12 10 8 8 9 9 9 10 14 15 17 18 18 17 13 9 11 5 17 22 27 26 29 32 32 34
Wind_Direction
151 133 133 124 106 97 90 93 96 88 94 98 86 81 80 81 76 78 78 72 71 72 70 70 71 67 74 78 77 88 114 137 137 136 139 138 137 133 133 131 127 124 122
146 147 151 143 124 110 96 102 100 96 91 87 84 79 78 75 76 75 70 64 64 66 62 59 64 84 90 76 70 90 114 133 141 145 143 143 144 142 142 141 134 132 129
146 151 144 139 130 120 109 104 100 93 87 86 83 75 72 69 66 67 66 60 53 50 50 49 54 87 97 68 67 86 117 131 143 153 153 155 153 155 149 147 140 137 136
150 147 140 138 132 127 122 114 107 99 95 89 84 80 77 68 63 61 60 57 56 54 45 45 57 63 78 84 76 75 125 152 150 154 157 158 159 163 161 157 149 146 142
150 147 140 139 137 130 124 117 107 96 88 85 82 78 76 69 63 60 57 52 51 49 52 49 58 60 64 38 79 58 91 157 156 166 175 178 176 176 172 169 166 161 163
142 142 140 142 137 137 120 113 105 95 90 94 89 75 66 66 57 54 53 50 49 48 45 46 50 54 26 27 179 141 93 175 165 200 218 205 199 197 185 188 188 183 191
141 143 145 146 139 128 117 112 103 99 90 91 95 91 68 67 58 53 55 46 45 39 42 42 42 42 50 4 296 207 207 190 191 201 224 218 219 217 215 205 206 199 194
147 146 148 142 138 130 118 112 110 104 101 100 103 96 79 72 60 57 53 50 51 48 47 44 46 43 35 35 334 246 226 225 233 249 264 247 248 246 241 232 213 201 205
154 153 156 151 145 141 125 125 118 114 108 106 105 85 70 62 64 59 54 51 50 52 48 57 55 44 44 56 34 356 235 267 263 265 275 277 273 264 255 254 240 220 213
155 157 155 152 151 154 151 142 140 124 95 74 78 74 60 58 60 55 58 51 53 49 48 52 50 39 39 47 43 53 284 283 305 287 278 278 289 272 277 272 257 228 214
161 160 160 161 163 164 163 160 157 134 99 79 74 72 64 53 57 56 51 52 45 45 42 44 47 44 39 42 36 37 56 6 334 327 301 300 293 274 263 284 281 235 219
171 169 171 175 176 176 173 174 180 161 127 99 83 73 67 59 56 55 56 48 39 40 40 40 40 40 36 37 38 36 33 17 355 332 328 321 311 304 283 261 278 254 224
181 183 185 186 188 190 187 188 192 193 179 128 89 72 73 74 76 73 63 58 51 48 47 46 45 39 33 27 25 26 24 21 15 12 353 335 325 307 293 277 279 272 230
181 183 183 185 188 191 198 197 198 198 191 160 116 80 70 74 76 72 65 57 52 48 46 39 36 36 35 32 24 17 14 10 7 4 2 358 345 344 316 300 280 277 246
184 187 189 191 194 197 197 200 196 193 189 172 144 97 74 76 83 78 69 60 51 44 39 32 30 26 23 22 22 21 15 8 1 353 348 347 346 351 350 333 320 306 252
194 193 193 196 200 202 199 199 194 190 188 181 162 126 104 86 88 87 77 60 48 40 33 27 23 22 19 16 16 16 11 9 5 358 352 340 337 340 349 347 334 322 310
202 200 199 199 200 201 199 197 194 191 190 189 175 152 132 107 93 91 80 58 45 34 24 19 19 18 15 12 13 10 6 1 359 6 359 351 343 338 343 339 326 332 320
206 203 202 201 198 198 199 198 195 192 193 192 186 181 164 144 101 95 84 57 41 28 17 14 12 13 11 5 2 360 357 355 4 359 358 356 349 340 332 334 332 323 313
209 204 200 200 199 197 196 197 196 195 196 197 196 191 178 175 154 113 95 53 36 19 7 9 10 5 0 357 354 348 346 349 2 352 3 348 342 339 337 330 330 322 311
212 208 202 200 199 197 195 192 194 196 199 202 202 197 185 177 172 156 133 87 4 356 356 355 357 357 353 346 335 334 331 302 346 19 344 348 341 337 338 333 327 324 318
212 205 200 197 197 195 191 188 193 198 201 205 205 201 193 184 183 185 207 232 293 308 333 331 329 323 328 337 318 334 317 197 302 351 334 334 333 335 333 330 331 322 321
208 207 201 200 199 200 202 200 200 205 211 211 211 204 201 199 200 214 230 249 252 296 304 316 323 311 315 335 334 328 327 290 209 320 325 325 325 324 326 325 322 319 314
203 203 203 202 201 203 204 200 199 191 198 203 207 208 202 207 211 225 239 239 245 277 300 308 319 320 320 335 334 327 334 272 317 163 319 315 324 319 322 322 318 314 309
202 203 201 204 203 204 202 201 203 200 196 208 209 202 204 205 210 220 212 222 260 271 277 289 312 315 327 317 322 318 296 297 308 323 338 309 315 314 316 314 310 304 303
197 196 199 202 203 204 203 205 207 209 210 203 198 199 201 206 214 218 216 246 264 267 271 293 294 301 308 302 304 304 296 299 278 241 300 310 310 309 306 302 304 296 299
193 192 194 197 202 204 204 204 209 209 203 195 196 202 204 209 215 216 223 256 262 272 266 286 281 295 299 296 298 291 285 277 268 245 264 292 297 303 299 301 303 290 293